Home   Weather   Gambier Islands   Past weeks

Flag for French Polynesia Past Weather in Gambier Islands, French Polynesia — Yesterday and Last 2 Weeks

Now
73 °F

Mild.


Feels Like: 70 °F
Forecast: 71 / 80 °F
Wind: 3 mph from North

Location: Rikitea

Current Time: Dec 4, 2016 at 11:25:19 pm

Latest Report: Dec 4, 2016 at 10:00 pm


Visibility: N/A

Pressure: 30.05 "Hg

Humidity: 91%

Dew Point: 70 °F

Location of Gambier IslandsLocation

Past Weather in Gambier Islands — Graph

°F

Gambier Islands Temperature Yesterday

Maximum temperature yesterday: 82 °F (at 1:00 pm)
Minimum temperature yesterday: 74 °F (at 4:00 am)
Average temperature yesterday: 77 °F

High & Low Weather Summary for the Past Weeks

 TemperatureHumidityPressure
High82 °F (Dec 4, 11:00 am)100% (Nov 25, 12:00 pm)30.13 "Hg (Nov 25, 12:00 pm)
Low69 °F (Nov 29, 5:00 am)53% (Nov 20, 10:00 am)29.96 "Hg (Nov 23, 3:00 am)
Average74 °F82%30.04 "Hg
* Reported Nov 19 10:00 pm — Dec 4 10:00 pm, Gambier Islands, Weather by CustomWeather, © 2016

Note: Actual official high and low records may vary slightly from our data, if they occured in-between our weather recording intervals... More about our weather records

Advertising

Gambier Islands Weather History for the Previous 24 Hours

Scroll right to see more
 ConditionsComfort  
Time TempWeatherWind HumidityBarometerVisibility
10:00 pm
Sun, Dec 4
73 °FMild.3 mph91%30.05 "HgN/A
9:00 pm73 °FMild.2 mph90%30.04 "HgN/A
8:00 pm74 °FMild.3 mph89%30.03 "HgN/A
7:00 pm75 °FMild.2 mph85%30.02 "HgN/A
6:00 pm77 °FWarm.1 mph79%30.00 "HgN/A
5:00 pm77 °FPassing clouds.2 mph80%29.99 "Hg25 mi
4:00 pm78 °FScattered clouds.1 mph80%29.99 "Hg25 mi
3:00 pm79 °FScattered clouds.2 mph76%29.99 "Hg25 mi
2:00 pm80 °FPassing clouds.3 mph78%30.01 "Hg25 mi
1:00 pm79 °FScattered clouds.2 mph75%30.03 "Hg25 mi
12:00 pm81 °FScattered clouds.2 mph72%30.04 "Hg25 mi
11:00 am82 °FScattered clouds.6 mph73%30.05 "Hg25 mi
9:00 am80 °FScattered clouds.3 mph73%30.06 "Hg25 mi
8:00 am79 °FPassing clouds.3 mph78%30.07 "Hg25 mi
7:00 am77 °FScattered clouds.3 mph86%30.06 "Hg25 mi
6:00 am74 °FScattered clouds.5 mph96%30.06 "Hg25 mi
5:00 am73 °FMild.5 mph96%30.04 "HgN/A
4:00 am73 °FMild.6 mph96%30.03 "HgN/A
3:00 am74 °FMild.6 mph94%30.03 "HgN/A
2:00 am74 °FMild.6 mph95%30.03 "HgN/A
1:00 am74 °FMild.5 mph95%30.05 "HgN/A
12:00 am75 °FMild.3 mph94%30.08 "HgN/A
11:00 pm
Sat, Dec 3
75 °FMild.5 mph93%30.10 "HgN/A
Weather by CustomWeather, © 2016

See weather overviewHow to use our weather pages